Hourly Weather Aars

Today, 19 October, Monday

Time Temperature Precipitation Wind Pressure Humidity
00:00 +4°C° 0 mm 3 mps 759 mmHg 70%
01:00 +5°C° 0 mm 4 mps 759 mmHg 73%
02:00 +5°C° 0 mm 4 mps 759 mmHg 74%
03:00 +5°C° 0 mm 4 mps 759 mmHg 76%
04:00 +5°C° 0 mm 5 mps 759 mmHg 78%
05:00 +5°C° 0 mm 4 mps 759 mmHg 78%
06:00 +5°C° 0 mm 4 mps 759 mmHg 79%
07:00 +4°C° 0 mm 3 mps 759 mmHg 81%
08:00 +5°C° 0 mm 3 mps 759 mmHg 77%
09:00 +7°C° 0 mm 4 mps 760 mmHg 72%
10:00 +8°C° 0 mm 4 mps 760 mmHg 68%
11:00 +8°C° 0 mm 4 mps 760 mmHg 65%
12:00 +10°C° 0 mm 4 mps 760 mmHg 63%
13:00 +10°C° 0 mm 4 mps 760 mmHg 61%
14:00 +10°C° 0 mm 3 mps 760 mmHg 63%
15:00 +10°C° 0 mm 3 mps 760 mmHg 66%
16:00 +10°C° 0 mm 2 mps 760 mmHg 69%
17:00 +9°C° 0 mm 2 mps 760 mmHg 71%
18:00 +8°C° 0 mm 3 mps 760 mmHg 74%
19:00 +8°C° 0 mm 3 mps 760 mmHg 76%
20:00 +7°C° 0 mm 4 mps 760 mmHg 78%
21:00 +7°C° 0 mm 4 mps 760 mmHg 80%
22:00 +7°C° 0 mm 5 mps 760 mmHg 82%
23:00 +7°C° 0 mm 5 mps 759 mmHg 83%

Tomorrow, 20 October, Tuesday

Time Temperature Precipitation Wind Pressure Humidity
00:00 +6°C° 0 mm 5 mps 759 mmHg 84%
01:00 +6°C° 0 mm 5 mps 759 mmHg 85%
02:00 +6°C° 0 mm 5 mps 759 mmHg 86%
03:00 +7°C° 0 mm 5 mps 758 mmHg 86%
04:00 +7°C° 0 mm 5 mps 758 mmHg 87%
05:00 +7°C° 0 mm 5 mps 757 mmHg 85%
06:00 +7°C° 0 mm 5 mps 757 mmHg 84%
07:00 +7°C° 0 mm 5 mps 757 mmHg 82%
08:00 +7°C° 0 mm 5 mps 756 mmHg 79%
09:00 +8°C° 0 mm 6 mps 756 mmHg 75%
10:00 +9°C° 0 mm 6 mps 755 mmHg 72%
11:00 +9°C° 0 mm 6 mps 755 mmHg 69%
12:00 +9°C° 0 mm 6 mps 755 mmHg 67%
13:00 +10°C° 0 mm 6 mps 754 mmHg 65%
14:00 +9°C° 0 mm 6 mps 754 mmHg 68%
15:00 +9°C° 0 mm 6 mps 753 mmHg 71%
16:00 +8°C° 0 mm 6 mps 752 mmHg 73%
17:00 +8°C° 0 mm 6 mps 752 mmHg 77%
18:00 +8°C° 0 mm 5 mps 752 mmHg 81%
19:00 +8°C° 0 mm 5 mps 751 mmHg 85%
20:00 +9°C° 0 mm 5 mps 751 mmHg 88%
21:00 +9°C° 0 mm 5 mps 751 mmHg 91%
22:00 +10°C° 0 mm 5 mps 751 mmHg 93%
23:00 +10°C° 0.1 mm 5 mps 751 mmHg 94%

Day after tomorrow, 21 October, Wednesday

Time Temperature Precipitation Wind Pressure Humidity
00:00 +12°C° 0.1 mm 5 mps 751 mmHg 94%
01:00 +12°C° 0.1 mm 5 mps 751 mmHg 94%
02:00 +12°C° 0.1 mm 5 mps 751 mmHg 95%
03:00 +12°C° 0.1 mm 5 mps 750 mmHg 95%
04:00 +12°C° 0.1 mm 5 mps 750 mmHg 95%
05:00 +12°C° 0 mm 5 mps 750 mmHg 95%
06:00 +12°C° 0 mm 5 mps 750 mmHg 95%
07:00 +12°C° 0 mm 5 mps 750 mmHg 95%
08:00 +13°C° 0 mm 5 mps 750 mmHg 94%
09:00 +13°C° 0 mm 5 mps 749 mmHg 92%
10:00 +13°C° 0 mm 5 mps 749 mmHg 91%
11:00 +13°C° 0.1 mm 5 mps 749 mmHg 89%
12:00 +14°C° 0.1 mm 5 mps 748 mmHg 88%
13:00 +14°C° 0.1 mm 5 mps 748 mmHg 87%
14:00 +13°C° 1.3 mm 6 mps 746 mmHg 89%
15:00 +11°C° 1.3 mm 6 mps 745 mmHg 91%
16:00 +11°C° 1.3 mm 6 mps 744 mmHg 94%
17:00 +11°C° 1.7 mm 7 mps 743 mmHg 93%
18:00 +12°C° 1.7 mm 7 mps 742 mmHg 91%
19:00 +12°C° 1.7 mm 7 mps 741 mmHg 90%
20:00 +12°C° 0.3 mm 9 mps 741 mmHg 89%
21:00 +12°C° 0.3 mm 10 mps 742 mmHg 89%
22:00 +12°C° 0.3 mm 11 mps 742 mmHg 88%
23:00 +12°C° 0 mm 10 mps 743 mmHg 87%

22 October, Thursday

Time Temperature Precipitation Wind Pressure Humidity
00:00 +12°C° 0 mm 10 mps 744 mmHg 86%
01:00 +12°C° 0 mm 9 mps 746 mmHg 86%
02:00 +12°C° 0.1 mm 9 mps 746 mmHg 87%
03:00 +11°C° 0.1 mm 8 mps 746 mmHg 87%
04:00 +11°C° 0.1 mm 7 mps 746 mmHg 88%
05:00 +11°C° 0.1 mm 7 mps 746 mmHg 89%
06:00 +11°C° 0.1 mm 7 mps 747 mmHg 89%
07:00 +11°C° 0.1 mm 7 mps 747 mmHg 89%
08:00 +11°C° 0.1 mm 7 mps 748 mmHg 85%
09:00 +11°C° 0.1 mm 7 mps 748 mmHg 81%
10:00 +10°C° 0.1 mm 7 mps 749 mmHg 77%
11:00 +10°C° 0 mm 8 mps 749 mmHg 73%
12:00 +10°C° 0 mm 9 mps 750 mmHg 69%
13:00 +9°C° 0 mm 10 mps 750 mmHg 65%
14:00 +9°C° 0 mm 10 mps 750 mmHg 65%
15:00 +8°C° 0 mm 10 mps 751 mmHg 65%
16:00 +8°C° 0 mm 9 mps 751 mmHg 65%
17:00 +8°C° 0 mm 9 mps 751 mmHg 65%
18:00 +8°C° 0 mm 9 mps 751 mmHg 66%
19:00 +7°C° 0 mm 8 mps 751 mmHg 66%
20:00 +7°C° 0 mm 8 mps 752 mmHg 67%
21:00 +7°C° 0 mm 8 mps 752 mmHg 69%
22:00 +7°C° 0 mm 8 mps 752 mmHg 70%
23:00 +6°C° 0 mm 7 mps 752 mmHg 72%

23 October, Friday

Time Temperature Precipitation Wind Pressure Humidity
00:00 +6°C° 0 mm 7 mps 752 mmHg 74%
01:00 +7°C° 0 mm 6 mps 752 mmHg 76%
02:00 +5°C° 0 mm 6 mps 752 mmHg 77%
03:00 +5°C° 0 mm 6 mps 753 mmHg 77%
04:00 +6°C° 0 mm 5 mps 753 mmHg 78%
05:00 +6°C° 0 mm 5 mps 753 mmHg 77%
06:00 +6°C° 0 mm 5 mps 753 mmHg 75%
07:00 +6°C° 0 mm 5 mps 753 mmHg 73%
08:00 +7°C° 0 mm 6 mps 753 mmHg 70%
09:00 +8°C° 0 mm 6 mps 754 mmHg 67%
10:00 +8°C° 0 mm 6 mps 754 mmHg 64%
11:00 +8°C° 0 mm 6 mps 754 mmHg 62%
12:00 +9°C° 0 mm 6 mps 754 mmHg 61%
13:00 +9°C° 0 mm 5 mps 755 mmHg 59%
14:00 +9°C° 0 mm 5 mps 755 mmHg 61%
15:00 +8°C° 0 mm 4 mps 755 mmHg 63%
16:00 +9°C° 0 mm 3 mps 755 mmHg 65%
17:00 +8°C° 0 mm 3 mps 755 mmHg 69%
18:00 +7°C° 0 mm 3 mps 755 mmHg 73%
19:00 +6°C° 0 mm 2 mps 755 mmHg 77%
20:00 +6°C° 0 mm 2 mps 755 mmHg 78%
21:00 +6°C° 0 mm 2 mps 755 mmHg 80%
22:00 +5°C° 0 mm 2 mps 755 mmHg 82%
23:00 +6°C° 0.4 mm 2 mps 755 mmHg 83%

24 October, Saturday

Time Temperature Precipitation Wind Pressure Humidity
00:00 +6°C° 0.4 mm 2 mps 755 mmHg 84%
01:00 +7°C° 0.4 mm 2 mps 755 mmHg 86%
02:00 +7°C° 1.2 mm 2 mps 755 mmHg 89%
03:00 +7°C° 1.2 mm 2 mps 755 mmHg 93%
04:00 +7°C° 1.2 mm 2 mps 754 mmHg 96%
05:00 +7°C° 0 mm 2 mps 755 mmHg 95%
06:00 +7°C° 0 mm 2 mps 755 mmHg 95%
07:00 +7°C° 0 mm 2 mps 755 mmHg 94%
08:00 +8°C° 0 mm 2 mps 756 mmHg 92%
09:00 +9°C° 0 mm 2 mps 756 mmHg 90%
10:00 +10°C° 0 mm 3 mps 756 mmHg 88%
11:00 +11°C° 0 mm 3 mps 756 mmHg 83%
12:00 +11°C° 0 mm 3 mps 757 mmHg 79%
13:00 +12°C° 0 mm 3 mps 757 mmHg 75%
14:00 +12°C° 0.1 mm 3 mps 757 mmHg 77%
15:00 +12°C° 0.1 mm 3 mps 757 mmHg 79%
16:00 +11°C° 0.1 mm 3 mps 757 mmHg 82%
17:00 +10°C° 0.1 mm 3 mps 757 mmHg 85%
18:00 +10°C° 0.1 mm 3 mps 758 mmHg 88%
19:00 +9°C° 0.1 mm 3 mps 758 mmHg 91%
20:00 +9°C° 0.1 mm 3 mps 758 mmHg 92%
21:00 +10°C° 0.1 mm 4 mps 758 mmHg 93%
22:00 +10°C° 0.1 mm 4 mps 758 mmHg 94%
23:00 +10°C° 0 mm 4 mps 758 mmHg 93%

25 October, Sunday

Time Temperature Precipitation Wind Pressure Humidity
00:00 +10°C° 0 mm 4 mps 758 mmHg 92%
01:00 +10°C° 0 mm 5 mps 758 mmHg 91%
02:00 +10°C° 0 mm 5 mps 758 mmHg 90%
03:00 +10°C° 0 mm 5 mps 758 mmHg 90%
04:00 +10°C° 0 mm 5 mps 758 mmHg 89%
05:00 +9°C° 0 mm 5 mps 758 mmHg 91%
06:00 +9°C° 0 mm 5 mps 758 mmHg 92%
07:00 +8°C° 0 mm 5 mps 758 mmHg 94%
08:00 +9°C° 0 mm 5 mps 758 mmHg 92%
09:00 +9°C° 0 mm 5 mps 759 mmHg 89%
10:00 +10°C° 0 mm 5 mps 759 mmHg 87%
11:00 +10°C° 0 mm 6 mps 759 mmHg 84%
12:00 +11°C° 0 mm 6 mps 759 mmHg 81%
13:00 +11°C° 0 mm 6 mps 759 mmHg 78%
14:00 +12°C° 0 mm 5 mps 759 mmHg 80%
15:00 +12°C° 0 mm 5 mps 758 mmHg 81%
16:00 +12°C° 0 mm 4 mps 758 mmHg 83%
17:00 +10°C° 0 mm 5 mps 758 mmHg 86%
18:00 +9°C° 0 mm 5 mps 758 mmHg 89%
19:00 +8°C° 0 mm 5 mps 758 mmHg 91%
20:00 +8°C° 0 mm 5 mps 758 mmHg 91%
21:00 +8°C° 0 mm 5 mps 758 mmHg 92%
22:00 +8°C° 0 mm 5 mps 758 mmHg 92%
23:00 +8°C° 0 mm 5 mps 758 mmHg 93%
Show more